Vertical_Velocity
5 1 1 -4 -1 3 -3 -1 -1 -1 -1 -4 -1 -1 -0 -0 10 10 -2 -1 -10 7 3 2 -1 2 5 3 3 -26 8 0 -7 1 1 -1 1 -2 -1 1 -2 0 -0 -2 1
3 -2 -1 -1 1 0 -1 0 -0 -2 -3 -3 -4 -3 -1 2 6 -7 1 0 -4 6 1 -0 -0 -2 6 0 3 7 4 -11 -9 -3 -2 0 -0 0 2 2 1 0 2 -2 1
-1 -2 -1 -2 1 1 1 1 0 -3 -2 -4 -2 -3 -5 8 1 -10 8 -1 2 4 6 8 5 -2 6 2 -0 -3 -6 -5 -0 -3 0 -1 0 -2 0 2 1 2 3 -1 3
-0 -2 -4 1 -1 -2 -0 -1 0 -2 -2 -3 -0 -2 -1 -10 -2 8 3 -1 -2 2 7 7 5 6 2 -0 -3 8 -1 -1 -4 2 3 -2 2 0 -0 4 -0 -1 -1 -2 1
-0 -1 0 0 0 -2 1 -1 -1 -2 -3 -2 -1 -1 1 -7 -2 2 -1 0 -2 -1 -2 3 0 1 -3 -2 6 7 -2 2 -0 0 1 1 0 2 -1 -1 -1 0 2 1 -0
3 -0 -2 -1 -1 -1 1 -1 2 -0 -2 -5 -5 -2 2 1 -3 0 0 1 -0 1 -0 6 -7 -5 2 -3 1 -7 -1 -4 1 1 0 -0 1 1 -0 -1 1 3 0 1 2
2 -1 -2 1 1 -1 1 -2 2 -3 0 0 -0 -0 -0 1 -3 -1 -1 1 1 -3 4 0 12 2 -3 4 -4 -0 6 5 4 -1 0 -1 10 -5 0 -2 1 1 2 1 -2
1 -1 -1 1 -0 -0 -1 0 -0 -1 3 1 3 2 2 -2 3 0 -0 1 -1 0 -1 -5 0 11 1 -3 11 3 9 3 -3 4 1 4 -11 -9 -2 1 -3 -0 1 1 -0
1 1 -0 -1 0 -0 -2 1 -1 1 0 -4 -8 -2 5 -7 4 1 -1 3 -2 3 -7 6 2 2 7 2 9 6 -2 4 6 -2 -1 7 -5 -5 6 0 -2 -2 1 0 -2
0 -1 1 -1 3 -2 -1 1 -3 -1 2 -1 -3 4 -3 5 -2 1 -1 0 4 -2 -11 5 -1 0 8 7 -10 -4 4 4 -3 -1 5 4 -2 0 -2 1 -4 -0 -1 -0 -0
-0 1 1 -2 1 1 0 -1 -2 1 -0 -0 1 1 -3 -4 -3 3 -6 2 6 4 3 1 -3 -1 -9 -5 -2 -3 -0 -2 0 -0 4 -3 -1 -4 -3 1 -1 -6 -1 -4 -3
-1 3 -0 -1 0 -0 2 -0 -1 -2 5 -0 -1 1 -4 -4 1 0 2 4 -4 -1 2 -2 -1 -4 -1 0 -1 2 -1 2 2 2 7 1 -6 -3 -0 -7 -3 -4 -3 -6 -2
-3 4 -1 -1 1 -0 1 -0 -2 -0 2 -5 -4 2 4 -1 6 -3 1 0 -2 3 1 -6 -3 1 -0 2 2 1 -4 1 -9 2 3 4 1 3 -3 3 0 1 -10 -2 -3
1 1 -1 -1 -1 0 0 2 -3 -2 3 3 3 -1 5 1 4 -7 -7 2 -0 -2 -1 -1 4 -1 3 -1 -3 1 -2 -2 -0 2 -1 5 -1 1 -2 -2 2 -2 -2 1 -2
-1 1 1 1 -1 -2 -0 2 -2 -3 2 2 4 -0 3 3 -1 -3 4 -3 -2 -1 -0 4 0 3 3 -8 -1 1 -1 -3 -1 1 3 4 7 -4 2 2 -4 -4 -4 -4 5
-3 2 -1 -1 -2 0 -5 0 -0 5 3 -1 1 1 1 0 1 1 3 4 -4 -2 1 -2 1 0 -4 1 -0 -0 1 1 1 1 5 -7 6 -0 -0 -8 -3 -3 -2 -5 0
-4 1 -1 1 -2 3 -6 2 3 1 2 2 0 0 -0 -0 2 2 0 3 -0 -1 2 6 3 1 1 -3 5 3 4 2 6 5 -2 1 8 -11 -2 -2 -1 -2 -2 -2 0
-2 2 -0 1 -3 -0 -3 4 -1 0 -1 1 -0 1 0 0 1 0 1 1 -0 -2 -2 -1 14 1 -1 -4 -8 -4 -4 -3 -4 -1 -2 1 -2 -2 -1 -1 -2 -3 -2 -3 -3
-2 3 1 0 -1 0 -2 1 0 -2 -3 -0 4 1 2 1 1 2 0 -1 -1 -2 -2 -2 1 0 -0 0 1 -1 3 4 -2 1 3 -1 1 -2 -0 -1 -0 0 -1 -2 -2
-2 3 1 -0 1 -1 2 0 1 -0 0 1 0 1 -0 1 1 2 1 -1 1 0 1 3 -1 -0 2 -1 1 5 -3 5 -0 1 1 2 -1 1 2 1 -0 -1 -0 -2 -2
0 4 -1 0 1 -1 1 -1 0 -1 -0 1 -0 1 0 -2 -0 0 1 2 -0 2 -0 -2 -6 5 1 -0 -3 4 2 1 2 2 1 1 1 0 -1 2 1 1 -0 -0 -1
1 2 0 1 3 -0 0 -2 -1 0 0 0 1 -0 -1 -0 -0 -0 -0 1 -0 -1 1 1 -2 -0 -3 2 1 1 -1 -1 4 0 1 3 -4 -1 -1 -0 -0 1 -0 -3 -1
0 0 2 -0 1 1 -0 0 0 1 -0 1 0 0 -0 -1 0 -0 0 1 -0 0 0 -1 2 1 3 3 2 1 -1 -0 0 -0 -2 5 -2 0 0 1 0 1 0 2 1
-0 1 2 1 -3 1 0 0 1 -0 0 0 0 1 1 0 -0 1 1 1 -0 0 -1 -2 -0 -1 -6 -0 -5 3 1 0 -0 3 -6 -8 -6 -2 -2 -1 -2 -1 0 0 2
-1 1 -1 1 3 0 1 0 0 1 -1 -0 1 -0 0 0 1 0 0 2 1 1 -0 1 -1 -1 0 0 -0 -1 -1 -0 2 -9 9 -15 2 -9 -5 -1 -2 0 -2 -1 1
-3 -3 -2 -0 -1 1 1 1 -1 2 2 1 -1 0 -0 -1 3 -0 -2 -0 -3 3 -0 0 2 -0 1 0 0 0 -0 0 -0 -2 2 3 -11 -1 -7 -2 0 -2 2 -1 -0
-1 -0 -1 0 1 2 0 0 1 -0 2 1 1 -0 -1 2 1 1 1 1 0 -3 -0 -1 -1 0 1 0 -0 2 -6 -2 -1 0 1 2 -20 -1 -5 -1 -1 -3 0 -0 -1
Height
1527 1526 1522 1519 1515 1512 1509 1506 1503 1501 1498 1496 1492 1489 1488 1489 1491 1493 1495 1498 1499 1501 1501 1504 1508 1511 1512 1514 1516 1522 1518 1516 1516 1523 1526 1532 1534 1535 1534 1535 1536 1536 1536 1536 1536
1526 1524 1521 1517 1514 1510 1508 1505 1503 1500 1497 1495 1491 1487 1486 1487 1489 1490 1494 1494 1496 1499 1500 1503 1506 1508 1512 1512 1513 1509 1511 1508 1516 1521 1524 1532 1534 1536 1536 1534 1536 1537 1536 1534 1536
1524 1522 1519 1515 1513 1509 1507 1504 1502 1499 1497 1494 1491 1488 1486 1484 1487 1489 1491 1491 1493 1497 1499 1502 1506 1511 1510 1511 1513 1512 1510 1511 1516 1524 1528 1532 1535 1537 1535 1535 1537 1538 1536 1535 1536
1522 1518 1516 1513 1511 1508 1505 1503 1501 1498 1496 1493 1491 1489 1487 1487 1490 1490 1489 1488 1490 1495 1498 1499 1504 1507 1506 1506 1510 1514 1517 1516 1519 1523 1527 1530 1534 1536 1538 1538 1538 1537 1536 1535 1536
1520 1516 1513 1512 1509 1506 1503 1501 1500 1497 1495 1493 1492 1490 1489 1491 1491 1489 1488 1487 1488 1493 1495 1498 1502 1504 1500 1503 1509 1511 1511 1515 1519 1523 1526 1530 1533 1536 1538 1539 1538 1538 1537 1536 1537
1518 1514 1510 1509 1506 1504 1502 1500 1499 1497 1495 1492 1491 1490 1490 1489 1489 1488 1488 1488 1490 1492 1495 1497 1499 1502 1501 1503 1508 1509 1513 1515 1520 1523 1527 1527 1531 1537 1536 1538 1539 1539 1538 1537 1538
1516 1511 1507 1505 1504 1502 1501 1499 1497 1496 1494 1491 1489 1489 1489 1490 1488 1488 1488 1489 1490 1493 1495 1497 1498 1502 1500 1505 1509 1510 1513 1515 1519 1521 1525 1528 1532 1532 1533 1537 1537 1538 1539 1538 1538
1513 1509 1506 1502 1500 1499 1498 1496 1496 1495 1494 1492 1491 1490 1489 1488 1487 1488 1488 1490 1491 1494 1496 1496 1499 1502 1502 1506 1509 1510 1510 1516 1514 1520 1526 1529 1522 1523 1532 1535 1534 1535 1537 1538 1538
1511 1506 1502 1499 1497 1496 1496 1495 1495 1495 1493 1492 1493 1492 1490 1489 1489 1488 1488 1491 1493 1494 1498 1500 1502 1504 1504 1503 1506 1508 1504 1510 1516 1516 1524 1522 1518 1524 1529 1532 1531 1532 1534 1535 1536
1508 1503 1499 1497 1495 1495 1494 1494 1493 1494 1493 1491 1491 1493 1491 1492 1490 1489 1489 1491 1494 1496 1500 1501 1503 1505 1501 1497 1495 1495 1496 1506 1508 1516 1519 1520 1520 1527 1522 1528 1527 1527 1529 1532 1533
1505 1500 1497 1495 1494 1493 1494 1493 1496 1495 1492 1493 1493 1492 1490 1491 1491 1490 1489 1492 1494 1497 1496 1499 1503 1504 1491 1491 1486 1490 1497 1509 1510 1516 1519 1518 1521 1521 1521 1525 1522 1522 1524 1528 1530
1502 1497 1495 1493 1492 1492 1493 1493 1492 1494 1494 1492 1492 1493 1491 1490 1491 1491 1490 1493 1495 1501 1494 1500 1501 1500 1492 1496 1496 1498 1501 1505 1511 1513 1517 1516 1516 1515 1517 1517 1516 1516 1519 1522 1526
1499 1495 1492 1491 1491 1492 1493 1493 1492 1492 1493 1493 1492 1493 1491 1491 1490 1490 1492 1492 1493 1494 1492 1496 1500 1503 1497 1497 1498 1497 1497 1504 1506 1513 1516 1518 1516 1513 1509 1511 1516 1514 1514 1516 1517
1497 1493 1491 1490 1492 1491 1493 1491 1492 1492 1491 1493 1492 1493 1492 1490 1490 1491 1489 1490 1491 1492 1494 1499 1499 1498 1494 1496 1496 1502 1499 1503 1508 1510 1511 1510 1499 1497 1501 1506 1507 1507 1509 1511 1514
1494 1491 1489 1487 1489 1491 1492 1491 1491 1492 1477 1492 1492 1491 1492 1492 1491 1490 1491 1493 1493 1492 1493 1497 1500 1497 1495 1495 1495 1501 1503 1505 1507 1507 1511 1513 1514 1491 1500 1500 1498 1504 1507 1508 1509
1491 1490 1489 1489 1489 1490 1491 1491 1492 1493 1484 1494 1490 1491 1492 1491 1490 1489 1490 1492 1493 1495 1494 1496 1499 1499 1497 1500 1499 1503 1507 1510 1512 1509 1518 1503 1510 1493 1497 1496 1494 1496 1499 1502 1505
1489 1488 1488 1488 1490 1489 1490 1492 1490 1479 1496 1490 1489 1490 1488 1491 1491 1490 1488 1488 1488 1492 1494 1498 1499 1502 1502 1500 1504 1501 1503 1520 1524 1523 1510 1513 1511 1491 1487 1491 1492 1492 1492 1495 1499
1486 1487 1487 1488 1490 1490 1491 1492 1480 1488 1489 1486 1485 1489 1489 1487 1489 1488 1487 1488 1488 1487 1490 1494 1503 1502 1502 1496 1499 1500 1495 1501 1509 1510 1503 1517 1507 1488 1486 1489 1491 1491 1492 1493 1494
1485 1486 1487 1488 1489 1490 1492 1482 1476 1483 1485 1483 1484 1483 1488 1490 1491 1488 1486 1490 1486 1483 1487 1492 1503 1506 1506 1503 1503 1505 1506 1509 1510 1518 1508 1496 1499 1489 1485 1486 1486 1488 1490 1490 1490
1484 1486 1487 1487 1489 1490 1490 1482 1480 1483 1483 1484 1477 1480 1479 1486 1487 1485 1489 1488 1486 1488 1488 1490 1501 1504 1506 1505 1506 1503 1504 1508 1510 1513 1506 1499 1496 1482 1486 1484 1486 1487 1488 1488 1486
1482 1485 1486 1487 1488 1490 1484 1483 1480 1482 1483 1481 1478 1477 1479 1480 1483 1482 1485 1488 1487 1488 1489 1487 1488 1508 1506 1507 1502 1504 1504 1506 1502 1505 1498 1498 1484 1482 1484 1487 1487 1487 1487 1486 1484
1481 1483 1484 1486 1489 1489 1482 1482 1480 1480 1481 1480 1480 1478 1477 1481 1481 1482 1482 1486 1487 1487 1486 1490 1491 1503 1500 1506 1506 1505 1498 1497 1500 1508 1511 1506 1488 1484 1486 1488 1488 1486 1486 1484 1483
1479 1481 1483 1483 1481 1480 1480 1480 1479 1479 1479 1480 1478 1477 1477 1479 1480 1482 1483 1487 1487 1487 1486 1488 1492 1502 1510 1508 1507 1506 1501 1500 1502 1505 1512 1501 1487 1484 1486 1487 1486 1484 1485 1484 1484
1477 1478 1482 1482 1482 1479 1478 1478 1477 1479 1479 1478 1478 1478 1477 1478 1481 1482 1484 1487 1488 1488 1489 1489 1492 1490 1486 1486 1488 1502 1498 1499 1501 1503 1493 1491 1487 1481 1481 1481 1482 1482 1483 1483 1482
1472 1474 1474 1477 1479 1478 1480 1480 1477 1477 1479 1478 1478 1478 1477 1477 1478 1481 1484 1487 1489 1489 1489 1489 1496 1502 1495 1495 1496 1496 1494 1494 1501 1493 1494 1484 1482 1481 1480 1481 1482 1482 1483 1482 1481
1468 1470 1474 1477 1478 1478 1479 1479 1478 1480 1480 1478 1478 1479 1479 1478 1483 1480 1482 1483 1482 1489 1489 1491 1496 1499 1496 1498 1498 1498 1492 1492 1491 1490 1489 1486 1482 1478 1480 1483 1479 1479 1478 1478 1477
1464 1466 1468 1477 1478 1476 1477 1480 1480 1481 1483 1483 1483 1481 1482 1486 1486 1486 1485 1484 1483 1483 1487 1489 1495 1496 1493 1501 1499 1492 1483 1484 1484 1484 1485 1485 1473 1476 1476 1477 1476 1474 1473 1471 1470